Miscellaneous Local Product
Issued by NWS North Platte, NE

Home | Current Version | Previous Version | Text Only | Print | Product List | Glossary On
Versions: 1 2 3 4 5 6 7 8 9 10 11 12 13 14 15 16 17 18 19 20 21 22 23 24 25 26 27 28 29 30 31 32 33 34 35 36 37 38 39 40 41 42 43 44 45 46 47 48 49 50
000
AXUS43 KLBF 300810
MISLBF


WESTERN AND NORTH CENTRAL NEBRASKA HOURLY WEATHER ROUNDUP
NATIONAL WEATHER SERVICE NORTH PLATTE NE
300 AM CDT WED JUL 30 2014

***STATIONS NOT REPORTING VARIABLES SUCH AS SKY/WEATHER OR
PRESSURE ARE PROVIDED BY THE NEBRASKA DEPARTMENT OF
ROADS...RAWS...AND APRS NETWORKS...AND ARE NOT UNDER
NATIONAL WEATHER SERVICE QUALITY CONTROL***

...OBSERVATIONS IN AND NEAR THE EASTERN PANHANDLE OF NEBRASKA...

CITY           SKY/WX    TMP DP  RH WIND       PRES   REMARKS
PINE RIDGE     PTCLDY    49  48  97 CALM      30.23F
CHADRON        MOCLDY    55  53  93 W3        30.23S
ALLIANCE       CLOUDY    64  53  67 E5        30.24F
SIDNEY         CLOUDY    62  59  90 SE6       30.26S
WHITECLAY        N/A     49  47  93 E5          N/A
RUSHVILLE        N/A     51  50  95 S6          N/A
GORDON           N/A     58  55  91 CALM        N/A
CRESCENT LAKE    N/A     63  57  80 E6          N/A
LISCO            N/A     68  64  88 CALM        N/A
BIG SPRINGS      N/A     64  62  93 CALM        N/A
$$

...OBSERVATIONS IN NORTH CENTRAL NEBRASKA...

CITY           SKY/WX    TMP DP  RH WIND       PRES   REMARKS
VALENTINE      PTCLDY    52  50  93 W6        30.19F
THEDFORD       MOCLDY    57  55  91 CALM      30.21S
AINSWORTH      PTCLDY    55  51  85 CALM      30.19S
O`NEILL        PTCLDY    58  54  86 CALM      30.17S
ORD            MOCLDY    56  55  97 CALM      30.16S
BROKEN BOW     CLOUDY    61  59  93 CALM      30.18S
BROWNLEE         N/A     62  52  68 CALM        N/A
SPRINGVIEW       N/A     52  48  87 CALM        N/A
DUNNING          N/A     61  60  99 CALM        N/A
ROSE             N/A     65  60  85 CALM        N/A
NEWPORT          N/A     55  55  99 CALM        N/A
SARGENT          N/A     59  57  92 CALM        N/A
COMSTOCK         N/A     66  61  86 CALM        N/A
CHAMBERS         N/A     56  54  92 CALM        N/A
$$

...OBSERVATIONS IN SOUTHWEST NEBRASKA AND FAR NORTHEAST COLORADO...

CITY           SKY/WX    TMP DP  RH WIND       PRES   REMARKS
WRAY             N/A    N/A N/A N/A NE9       30.20F
HOLYOKE        FAIR      63  61  94 E7        30.21F
IMPERIAL       LGT RAIN  63  60  90 E6        30.20F
OGALLALA       CLOUDY    63  61  93 S3        30.20F
NORTH PLATTE   CLOUDY    64  59  83 CALM      30.19F
MCCOOK         RAIN      63  61  93 E12       30.17S FOG
LEXINGTON      CLOUDY    66  60  81 SE3       30.17F
PAXTON           N/A     65  63  92 CALM        N/A
SUTHERLAND       N/A     64  61  91 E5          N/A
BRADY            N/A     64  59  84 CALM        N/A
CALLAWAY         N/A     63  61  93 CALM        N/A
$$

...SOME WEATHER OBSERVATIONS FROM AROUND THE REGION...

CITY           SKY/WX    TMP DP  RH WIND       PRES   REMARKS
DENVER         LGT RAIN  58  56  93 E10       30.26R
LARAMIE        LGT RAIN  54  51  90 CALM      30.36S
CHEYENNE       LGT RAIN  55  54  96 NE8       30.32F
SCOTTSBLUFF    CLOUDY    63  60  90 NE7       30.25F
RAPID CITY     PTCLDY    54  49  83 CALM      30.20F
PIERRE         CLOUDY    63  57  81 CALM      30.14S
WINNER         FAIR      64  49  57 SW5       30.16F
SIOUX FALLS    CLEAR     55  52  89 CALM      30.15S
OMAHA          PTCLDY    57  54  89 NW5       30.13S
GRAND ISLAND   CLOUDY    65  59  81 CALM      30.16S
KANSAS CITY    PTCLDY    64  59  83 N5        30.10F
WICHITA        CLOUDY    69  60  73 S3        30.07S
HAYS           CLOUDY    70  55  60 E8        30.10S
LIBERAL        CLOUDY    66  61  82 SE7       30.06F
GOODLAND       CLOUDY    63  61  93 N13       30.15F
$$



USA.gov is the U.S. government's official web portal to all federal, state and local government web resources and services.